YAOGAN-43 01A

Last updated on Mon Sep 16 2024 00:02:03 GMT+0000 (Coordinated Universal Time)

1 60458U 24148A 24259.38114074 .00027838 00000+0 11866-2 0 9993 2 60458 34.9995 226.2621 0007940 183.5857 176.4801 15.21996470 4591
UTC large
Height (km)
Speed (km/s)
/
Latitude / Longitude
Inclination (degrees)
Orbital Period (minutes)
Azimuth
Elevation
Range (km)
Doppler Factor

Next 0 passes for location: London (51.5072 / 0.1276)

Sorry there are no passes over London.